This demonstration page uses our WeatherBlox Daily Observations layout. Learn more.

Left ArrowRight Arrow

Hourly Observations for June 2, 2019

Temp ( °F °C ) Dew Point ( °F °C ) Humidity (%) Winds ( mph kmh ) Pressure ( in mb ) Visibility ( mi km ) Precip ( " mm )
12:53 am 00:53 Hazy 59 15 50 10 72 72 Calm 29.78 1008 6 10 0.00 0.00
1:53 am 01:53 Hazy 59 15 50 10 72 72 Calm 29.77 1008 6 10 0.00 0.00
2:53 am 02:53 Hazy 56 13.3 49 9.4 77 77 Calm 29.76 1008 6 10 0.00 0.00
3:53 am 03:53 Clear with Mist and Fog 51 10.6 48 8.9 89 89 Calm 29.77 1008 6 10 0.00 0.00
4:53 am 04:53 Clear with Mist and Fog 50 10 48 8.9 93 93 S 5 7 29.78 1008 5 8 0.00 0.00
5:53 am 05:53 Sunny with Mist and Fog 52 11.1 48 8.9 86 86 Calm 29.78 1008 5 8 0.00 0.00
6:53 am 06:53 Sunny with Mist and Fog 53 11.7 50 10 89 89 SSW 3 6 29.78 1009 5 8 0.00 0.00
7:53 am 07:53 Sunny 59 15 52 11.1 78 78 SSW 5 7 29.78 1009 8 13 0.00 0.00
8:53 am 08:53 Sunny 68 20 51 10.6 55 55 WSW 14 22 29.78 1008 10 16 0.00 0.00
9:53 am 09:53 Sunny 72 22.2 51 10.6 48 48 SSW 12 19 29.78 1008 10 16 0.00 0.00
10:53 am 10:53 Sunny 76 24.4 50 10 40 40 SW 14 22 29.76 1008 10 16 0.00 0.00
11:53 am 11:53 Sunny 79 26.1 50 10 36 36 SW 15 24 29.75 1008 10 16 0.00 0.00
12:53 pm 12:53 Sunny 81 27.2 50 10 34 34 SW 8 13 29.73 1007 10 16 0.00 0.00
1:53 pm 13:53 Sunny 84 28.9 49 9.4 30 30 SSW 10 17 29.72 1006 10 16 0.00 0.00
2:53 pm 14:53 Sunny 86 30 46 7.8 25 25 WSW 13 20 29.70 1006 10 16 0.00 0.00
3:53 pm 15:53 Sunny 85 29.4 44 6.7 24 24 WSW 7 11 29.70 1006 10 16 0.00 0.00
4:53 pm 16:53 Sunny 85 29.4 43 6.1 23 23 SW 8 13 29.69 1005 10 16 0.00 0.00
5:53 pm 17:53 Sunny 85 29.4 43 6.1 23 23 SW 10 17 29.68 1005 10 16 0.00 0.00
6:53 pm 18:53 Sunny 83 28.3 48 8.9 30 30 SW 8 13 29.67 1005 10 16 0.00 0.00
7:53 pm 19:53 Sunny 79 26.1 51 10.6 38 38 S 9 15 29.67 1005 10 16 0.00 0.00
8:53 pm 20:53 Sunny 70 21.1 52 11.1 53 53 S 8 13 29.67 1005 10 16 0.00 0.00
9:53 pm 21:53 Clear 68 20 50 10 53 53 S 12 19 29.67 1005 10 16 0.00 0.00
10:53 pm 22:53 Clear 67 19.4 49 9.4 53 53 S 10 17 29.67 1005 10 16 0.00 0.00
11:53 pm 23:53 Clear 61 16.1 50 10 67 67 WNW 3 6 29.68 1005 10 16 0.00 0.00

Powered by AerisWeather